This demonstration page uses our WeatherBlox Daily Observations layout. Learn more.

39.08367, -84.50855

Hourly Observations for January 24, 2020

Temp ( °F °C ) Dew Point ( °F °C ) Humidity (%) Winds ( mph kmh ) Pressure ( in mb ) Visibility ( mi km ) Precip ( " mm )
12:53 am 00:53 Cloudy with Light Rain 38 3.3 35 1.7 89 89 NNE 5 7 30.01 1016 10 16.0934 0.001 0.001
1:53 am 01:53 Cloudy with Light Rain 39 3.9 37 2.8 93 93 Calm 29.99 1016 10 16.0934 0.001 0.001
2:53 am 02:53 Cloudy with Light Rain 38 3.3 37 2.8 97 97 Calm 29.98 1015 9 14.48406 0.01 0.254
3:53 am 03:53 Cloudy with Light Rain 41 5 38 3.3 89 89 Calm 29.97 1015 10 16.0934 0.01 0.254
4:53 am 04:53 Cloudy with Rain 41 5 40 4.4 96 96 SE 3 6 29.96 1015 4 6.43736 0.07 1.778
5:13 am 05:13 Cloudy with Rain 42 5.6 40 4.4 92 92 Calm 29.98 1015 3 4.82802 0.04 1.016
5:53 am 05:53 Cloudy with Light Rain 41 5 40 4.4 96 96 Calm 29.95 1014 8 12.87472 0.07 1.778
6:17 am 06:17 Cloudy with Light Rain 41 5 39 3.9 93 93 Calm 29.96 1014 7 11.26538 0.03 0.762
6:53 am 06:53 Cloudy with Light Rain 41 5 39 3.9 93 93 Calm 29.94 1014 10 16.0934 0.06 1.524
7:53 am 07:53 Cloudy with Light Rain 41 5 40 4.4 96 96 NNE 5 7 29.93 1014 7 11.26538 0.01 0.254
8:19 am 08:19 Cloudy with Light Rain 42 5.6 41 5 96 96 N 3 6 29.94 1014 2 3.21868 0.01 0.254
8:21 am 08:21 Cloudy with Light Rain 42 5.6 41 5 96 96 N 3 6 29.94 1014 1.75 2.816345 0.01 0.254
8:28 am 08:28 Cloudy with Light Rain 42 5.6 41 5 96 96 Calm 29.94 1014 2 3.21868 0.02 0.508
8:53 am 08:53 Cloudy with Light Rain 43 6.1 42 5.6 97 97 Calm 29.92 1013 2 3.21868 0.03 0.762
9:13 am 09:13 Cloudy with Light Rain 44 6.7 42 5.6 93 93 Calm 29.93 1014 2.5 4.02335 0.01 0.254
9:26 am 09:26 Cloudy 44 6.7 42 5.6 93 93 Calm 29.92 1013 7 11.26538 0.01 0.254
9:53 am 09:53 Cloudy with Light Rain 43 6.1 42 5.6 97 97 SW 5 7 29.92 1013 4 6.43736 0.01 0.254
10:03 am 10:03 Cloudy with Light Rain 44 6.7 43 6.1 96 96 SW 5 7 29.93 1014 2.5 4.02335 0.01 0.254
10:05 am 10:05 Cloudy with Light Rain 44 6.7 43 6.1 96 96 SW 5 7 29.93 1014 3 4.82802 0.01 0.254
10:25 am 10:25 Cloudy with Light Rain 43 6.1 42 5.6 97 97 WSW 8 13 29.95 1014 6 9.65604 0.01 0.254
10:51 am 10:51 Cloudy with Light Rain 45 7 45 7 100 100 Calm 29.93 1014 5 8.0467 0.03 0.762
10:53 am 10:53 Cloudy with Light Rain 45 7.2 43 6.1 93 93 Calm 29.92 1013 5 8.0467 0.03 0.762
11:24 am 11:24 Cloudy with Light Rain 45 7.2 44 6.7 97 97 Calm 29.92 1013 10 16.0934 0.01 0.254
11:53 am 11:53 Cloudy with Light Rain 46 7.8 44 6.7 93 93 S 5 7 29.9 1013 8 12.87472 0.01 0.254
12:45 pm 12:45 Cloudy with Rain 45 7.2 44 6.7 97 97 S 3 6 29.88 1012 2.5 4.02335 0.05 1.27
12:53 pm 12:53 Cloudy with Light Rain 45 7.2 44 6.7 97 97 Calm 29.87 1012 4 6.43736 0.06 1.524
1:53 pm 13:53 Cloudy with Rain 46 7.8 45 7.2 96 96 Calm 29.84 1011 3 4.82802 0.07 1.778
2:03 pm 14:03 Cloudy with Light Rain 46 7.8 44 6.7 93 93 ENE 6 9 29.83 1010 2.5 4.02335 0.01 0.254
2:27 pm 14:27 Cloudy 47 8.3 45 7.2 93 93 Calm 29.83 1010 7 11.26538 0.01 0.254
2:53 pm 14:53 Mostly Cloudy 47 8.3 45 7.2 93 93 SW 5 7 29.82 1010 10 16.0934 0.01 0.254
3:53 pm 15:53 Cloudy 49 9.4 47 8.3 93 93 S 5 7 29.81 1010 10 16.0934 0 0
4:30 pm 16:30 Mostly Cloudy 48 8.9 45 7.2 89 89 S 8 13 29.82 1010 10 16.0934 0 0
4:53 pm 16:53 Mostly Cloudy 49 9.4 45 7.2 86 86 S 7 11 29.81 1010 10 16.0934 0 0
5:53 pm 17:53 Cloudy 46 7.8 41 5 83 83 SW 10 17 29.84 1010 10 16.0934 0 0
6:53 pm 18:53 Cloudy 43 6.1 40 4.4 89 89 Calm 29.86 1011 10 16.0934 0 0
7:00 pm 19:00 Mostly Cloudy 43 6.1 40 4.4 89 89 Calm 29.88 1012 10 16.0934 0 0
7:51 pm 19:51 Cloudy 39 4 39 4 100 100 Calm 29.89 1012 10 16.0934 0 0
7:53 pm 19:53 Cloudy 41 5 40 4.4 96 96 Calm 29.87 1012 10 16.0934 0 0
8:53 pm 20:53 Cloudy with Light Rain 43 6.1 41 5 93 93 SW 5 7 29.88 1012 7 11.26538 0.03 0.762
9:53 pm 21:53 Cloudy 42 5.6 39 3.9 89 89 SW 8 13 29.89 1012 10 16.0934 0.001 0.001
10:53 pm 22:53 Cloudy 40 4.4 38 3.3 93 93 SSW 8 13 29.89 1012 10 16.0934 0 0
11:53 pm 23:53 Cloudy 39 3.9 36 2.2 89 89 SSW 5 7 29.9 1013 10 16.0934 0 0

Powered by AerisWeather